User: anonymous   Login
Location: Key Biscayne
(25.6930°N, 80.1630°W)
Time: 12:38:40
(UTC-05:00)
Language:

CZ-2D R/B - Orbit

View from above orbital plane
View from above orbital plane
View from above satellite
View from above satellite

Ground track
Ground track

The orbit data is extracted from the following two-line orbital elements,

1 28738U 05024B   15031.40200681  .00004755  00000-0  31016-3 0  9614
2 28738 097.6045 069.5222 0014452 102.1261 258.1587 15.08273579524842
Epoch (UTC): 31 January 2015 09:38:53
Eccentricity: 0.0014452
inclination: 97.6045°
perigee height: 531 km
apogee height: 551 km
right ascension of ascending node: 69.5222°
argument of perigee: 102.1261°
revolutions per day: 15.08273579
mean anomaly at epoch: 258.1587°
orbit number at epoch: 52484

The dashed part of the orbit path shows where the satellite is in the earth's shadow,  

DLR